Location: Aalen
(48.8330°N, 10.1000°E)
Time: 01:11:54
(UTC+02:00)

Transit 4A - Pass Details

Date: 07 August 2021
Orbit: 870 x 974 km, 66.8° (Epoch: 26 September)

Event Time Altitude Azimuth Distance (km) Brightness Sun altitude
Rises 22:05:14 0° 156° (SSE) 3,482 - -11.3°
Reaches altitude 10° 22:09:00 10° 132° (SE) 2,533 - -11.8°
Exits shadow 22:11:12 14° 110° (ESE) 2,275 9.4 -12.1°
Maximum altitude 22:11:49 14° 103° (ESE) 2,260 9.4 -12.1°
Drops below altitude 10° 22:14:38 10° 73° (ENE) 2,526 9.9 -12.5°
Sets 22:18:23 0° 50° (NE) 3,466 10.8 -12.9°
